Cyclone, PA

10:41 PM EST on February 05, 2016 (GMT -0500)
Bradford Regional

Weather History for KBFD - July, 2015

Change the Weather History Date:

Saturday, July 25, 2015

  Actual Average Record
Temperature  
Mean Temperature 66 °F 65 °F  
Max Temperature 82 °F 77 °F 85 °F (1966)
Min Temperature 49 °F 54 °F 39 °F (2013)
Degree Days  
Heating Degree Days 0 0  
Month to date heating degree days 47 1  
Since 1 June heating degree days 154 146  
Since 1 July heating degree days 47 1  
Cooling Degree Days 1 2  
Month to date cooling degree days 47 58  
Year to date cooling degree days 129 108  
Since 1 June cooling degree days 85 98  
Growing Degree Days 14 (Base 50)    
Moisture  
Dew Point 56 °F    
Average Humidity 71    
Maximum Humidity 93    
Minimum Humidity 48    
Precipitation  
Precipitation 0.00 in 0.13 in 0.88 in (1977)
Month to date precipitation 2.45 3.38  
Year to date precipitation 22.35 25.03  
Sea Level Pressure  
Sea Level Pressure 30.00 in    
Wind  
Wind Speed 3 mph (South)    
Max Wind Speed 10 mph    
Max Gust Speed 13 mph    
Visibility 10 miles    
Events      
T = Trace of Precipitation, MM = Missing Value Source: NWS Daily Summary

Daily Weather History Graph

Daily Weather History Graph

Search for Another Location

Airport or City:

Trip Planner

Search our weather history database for the weather conditions in past years. The results will help you decide how hot, cold, wet, or windy it might be!

Date:

Astronomy

Jul. 25, 2015 Rise Set
Actual Time 6:01 AM EDT 8:40 PM EDT
Civil Twilight 5:29 AM EDT 9:12 PM EDT
Nautical Twilight 4:48 AM EDT 9:52 PM EDT
Astronomical Twilight 4:03 AM EDT 10:37 PM EDT
Moon 3:13 PM EDT (7/25) 1:05 AM EDT (7/25)
Length of Visible Light 15h 42m
Length of Day
14h 38m
Waxing Gibbous, 65% of the Moon is Illuminated
Jul 25
Waxing Gibbous
Jul 31
Full
Aug 6
Last Quarter
Aug 14
New
Aug 22
First Quarter

Hourly Weather History & Observations

Time (EDT) Temp. Dew Point Humidity Pressure Visibility Wind Dir Wind Speed Gust Speed Precip Events Conditions
12:53 AM 53.1 °F 51.1 °F 93% 30.03 in 10.0 mi Calm Calm - N/A   Clear
1:53 AM 52.0 °F 48.9 °F 89% 30.02 in 10.0 mi Calm Calm - N/A   Clear
2:53 AM 51.1 °F 48.0 °F 89% 30.02 in 10.0 mi SE 3.5 mph - N/A   Scattered Clouds
3:53 AM 51.1 °F 48.0 °F 89% 30.02 in 10.0 mi Calm Calm - N/A   Clear
4:53 AM 50.0 °F 48.0 °F 93% 30.03 in 10.0 mi Calm Calm - N/A   Partly Cloudy
5:53 AM 50.0 °F 48.0 °F 93% 30.03 in 10.0 mi Calm Calm - N/A   Clear
6:53 AM 53.1 °F 51.1 °F 93% 30.02 in 10.0 mi Calm Calm - N/A   Mostly Cloudy
7:53 AM 64.0 °F 55.9 °F 75% 30.03 in 10.0 mi Calm Calm - N/A   Overcast
8:53 AM 64.0 °F 57.0 °F 78% 30.04 in 10.0 mi East 3.5 mph - N/A   Overcast
9:53 AM 69.1 °F 57.0 °F 65% 30.03 in 10.0 mi SSE 3.5 mph - N/A   Overcast
10:53 AM 73.9 °F 55.0 °F 52% 30.01 in 10.0 mi Variable 5.8 mph - N/A   Partly Cloudy
11:53 AM 75.9 °F 55.0 °F 48% 30.03 in 10.0 mi Variable 6.9 mph - N/A   Mostly Cloudy
12:53 PM 79.0 °F 57.9 °F 48% 30.02 in 10.0 mi Variable 4.6 mph - N/A   Partly Cloudy
1:53 PM 78.1 °F 57.9 °F 50% 30.01 in 10.0 mi SW 6.9 mph - N/A   Mostly Cloudy
2:53 PM 79.0 °F 59.0 °F 50% 29.99 in 10.0 mi Variable 6.9 mph - N/A   Mostly Cloudy
3:53 PM 79.0 °F 57.9 °F 48% 29.98 in 10.0 mi Variable 5.8 mph - N/A   Scattered Clouds
4:53 PM 79.0 °F 57.0 °F 47% 29.95 in 10.0 mi SW 4.6 mph - N/A   Scattered Clouds
5:53 PM 79.0 °F 59.0 °F 50% 29.96 in 10.0 mi SW 5.8 mph - N/A   Overcast
6:53 PM 78.1 °F 60.1 °F 54% 29.95 in 10.0 mi Variable 3.5 mph - N/A   Scattered Clouds
7:53 PM 75.0 °F 60.1 °F 60% 29.94 in 10.0 mi Calm Calm - N/A   Partly Cloudy
8:53 PM 73.0 °F 61.0 °F 66% 29.94 in 10.0 mi Calm Calm - N/A   Overcast
9:53 PM 71.1 °F 62.1 °F 73% 29.95 in 10.0 mi Calm Calm - N/A   Mostly Cloudy
10:53 PM 70.0 °F 61.0 °F 73% 29.95 in 10.0 mi South 3.5 mph - N/A   Mostly Cloudy
11:53 PM 71.1 °F 61.0 °F 70% 29.94 in 10.0 mi SSW 3.5 mph - N/A   Overcast